CZ-6A DEB, 56238

Orbit data source: Space-Track

CZ-6A DEB, 56238 is space debris in SSO originally from a launch on Fri, 11 Nov 2022 UTC launched from the Taiyaun Space Center, China (TSC). Debris objects in space refer to the collection of defunct objects orbiting the Earth. Examples of debris include non-operational satellites, rocket bodies, and fragments generated from explosions, collisions, or faulty payload assembly.

Loading next visibility...
Identifier
56238, 2022-151ABE
Orbit
SSO
Country
Flag of CNCN / PRC
Related business
Manufacturer
SAST
Mission
Spacecraft
Bus & Motor
Unknown
Mass
Unknown
Launch date (UTC)
2022-11-11 (4 years ago)
Launch vehicle
Unknown
Launch site
Taiyaun Space Center, China (TSC)
Object type
Payload
Rocket body
Debris
Shape & HBR
Unknown shape, 0.1 m
Radar Cross Section
Small (<0.1 m²)

Expand to show TLE details & history
Last TLE update: 23 hours ago

TLE from 23 hours ago
0 CZ-6A DEB
1 56238U 22151ABE 26144.06353863  .00000076  00000-0  11426-3 0  9996
2 56238  98.9139  62.6037 0244134 282.1184  75.2710 13.67416193158606
Epoch: 2026-05-24T01:31Z
TLE epoch observation values (Epoch: 2026-05-24T01:31:29.737Z)
Latitude
-0.00001°
Longitude
158.05874°
Altitude
969.996 km
Speed
7.387 km/s
True Right ascension
04h 10m 24s
True Declination
0° 00' 00"
Sunlit
Object was in daylight at epoch
Visualization orbit readout
Latitude
Unknown
Longitude
Unknown
Altitude
Unknown
Speed
Unknown
Apparent Right ascension
Unknown
Apparent Declination
Unknown
Sunlit
N/A
Visualization observer readout
Local Sidereal Time
09:32:55
Azimuth
Unknown
Elevation
Unknown
Doppler factor
Unknown
Orbital elements
Apogee altitude
1,186.373 km
Perigee altitude
825.824 km
Semi-major axis
7,384.235 km
Eccentricity
0.02441
Inclination
98.9139°
RAAN
62.6037°
Arg. of periapsis
282.1184°
True anomaly
77.99676°
Mean anomaly
75.271°
Eccentric anomaly
76.63188°
Mean motion
3.42046 °/min
Orbital period
105.25 mins
BSTAR
0.00011426
Loading maneuver chart data...
Computing Atmospheric mass density...
Loading historical data...
Loading historical data...
Loading historical data...
Loading historical data...
Loading historical data...
Loading historical data...
Loading historical data...

Documentation

Showing up to 5 results
|